Location: Powder Track
(41.8531°N, 72.3584°W)
Time: 07:21:14
(UTC+00:00)

Altair - Pass Details

Date: 01 August 2021
Orbit: 1501 x 1682 km, 47.2° (Epoch: 19 September)

Event Time Altitude Azimuth Distance (km) Brightness Sun altitude
Exits shadow 03:58:19 13° 99° (E) 3,461 9.1 -28.7°
Drops below altitude 10° 03:59:57 10° 90° (E) 3,710 9.4 -28.8°
Sets 04:04:23 0° 71° (ENE) 4,670 10.1 -29.0°
